Location: Prairie State College
(41.5244°N, 87.6382°W)
Time: 12:59:50
(UTC-05:00)

MSX - Visible Passes

Search period start: 24 October 2014 00:00
Search period end: 02 November 2014 23:00
Orbit: 895 x 906 km, 98.8° (Epoch: 21 October)

Date Brightness Start Highest point End Pass type
(mag) Time Alt. Az. Time Alt. Az. Time Alt. Az.
24 Oct 5.0 19:18:30 21° ENE 19:18:31 21° ENE 19:22:39 10° NNE visible
24 Oct 4.8 21:01:34 42° NW 21:01:34 42° NW 21:05:27 10° NNW visible
25 Oct 5.0 19:21:31 22° ENE 19:21:31 22° ENE 19:25:34 10° NNE visible
25 Oct 5.0 21:04:36 38° NW 21:04:36 38° NW 21:08:15 10° NNW visible
26 Oct 5.0 19:24:33 23° NE 19:24:33 23° NE 19:28:28 10° NNE visible
26 Oct 5.1 21:07:37 35° NW 21:07:37 35° NW 21:11:03 10° NNW visible
27 Oct 4.9 19:27:34 24° NE 19:27:34 24° NE 19:31:22 10° NNE visible
27 Oct 5.3 21:10:38 32° NW 21:10:38 32° NW 21:13:50 10° NNW visible
28 Oct 4.9 19:30:35 25° NE 19:30:35 25° NE 19:34:16 10° N visible
28 Oct 5.4 21:13:40 29° NW 21:13:40 29° NW 21:16:38 10° NNW visible
29 Oct 4.9 19:33:36 25° NE 19:33:36 25° NE 19:37:10 10° N visible
29 Oct 5.6 21:16:41 27° NW 21:16:41 27° NW 21:19:25 10° NNW visible
30 Oct 4.9 19:36:37 26° NE 19:36:37 26° NE 19:40:03 10° N visible
30 Oct 5.7 21:19:41 25° NW 21:19:41 25° NW 21:22:12 10° NNW visible
31 Oct 4.9 19:39:38 26° NE 19:39:38 26° NE 19:42:56 10° N visible
31 Oct 5.8 21:22:42 23° NW 21:22:42 23° NW 21:24:59 10° NNW visible
01 Nov 5.0 19:42:38 26° NNE 19:42:38 26° NNE 19:45:49 10° N visible
01 Nov 5.9 21:25:43 21° NW 21:25:43 21° NW 21:27:45 10° NNW visible
02 Nov 5.0 18:45:39 26° NNE 18:45:39 26° NNE 18:48:41 10° N visible
02 Nov 6.0 20:28:43 19° NW 20:28:43 19° NW 20:30:31 10° NNW visible
